Regional Weather Roundup
Issued by NWS

Home | Current Version | Previous Version | Text Only | Print | Product List | Glossary On
Versions: 1 2 3 4 5 6 7 8 9 10 11 12 13 14 15 16 17 18 19 20 21 22 23 24 25 26 27
000
ASUS44 KLIX 060111
RWRLA
LOUISIANA WEATHER ROUNDUP
NATIONAL WEATHER SERVICE NEW ORLEANS LA
800 PM CDT THU MAY 05 2016

NOTE: "FAIR" INDICATES FEW OR NO CLOUDS BELOW 12,000 FEET WITH NO
      SIGNIFICANT WEATHER AND/OR OBSTRUCTIONS TO VISIBILITY.
      SKY/WX - SKY CONDITION AND SIGNIFICANT WEATHER.
      TMP - AIR TEMPERATURE.    DP   - DEWPOINT TEMPERATURE.
      RH  - RELATIVE HUMIDITY.  PRES - PRESSURE.
      HX  - HEAT INDEX.         WCI  - WIND CHILL INDEX.

*  THESE STATIONS ARE NOT NWS OR FAA STATIONS AND ARE NOT UNDER
   NWS QUALITY CONTROL.

LAZ040-048-061>063-065-066-069-060200-
SOUTHEAST LOUISIANA

CITY           SKY/WX    TMP DP  RH WIND       PRES   REMARKS
N.O. AUDUBON     N/A    N/A N/A N/A MISG        N/A
N.O. INTL ARPT PTCLDY    74  46  36 N10       29.89R
N.O. LAKEFRONT CLEAR     73  51  46 NW18      29.90R
N.O. DOWNTOWN* FAIR      76  46  34 N7        29.90R
RESERVE*       FAIR      72  48  42 NW5       29.91R
SLIDELL        CLEAR     69  50  50 N5        29.89R
BATON ROUGE    CLEAR     70  42  36 CALM      29.92R
BOOTHVILLE     CLEAR     72  54  53 NW7       29.88R
BELLE CHASSE   PTCLDY    74  46  36 N8        29.88R
BOGALUSA*      FAIR      69  44  40 N6        29.92R
GALLIANO*      CLEAR     70  52  52 N5        29.89R
NEW ROADS*     FAIR      67  49  52 N7        29.93R
GONZALES*      FAIR      69  45  41 N6        29.91R
HAMMOND*       CLEAR     68  45  42 N3        29.91R
HOUMA*           N/A     72  47  40 NW7       29.90R
PORT FOURCHON* CLEAR     75  55  50 N8        29.90R

$$

LAZ041-044-053-054-060200-
SOUTHWEST LOUISIANA

CITY           SKY/WX    TMP DP  RH WIND       PRES   REMARKS
LAKE CHARLES   CLEAR     73  43  33 N6        29.93R
LAFAYETTE      CLEAR     74  47  38 N6        29.92R
PATTERSON      NOT AVBL
SALT POINT       N/A     71  53  52 CALM      29.91R
NEW IBERIA     CLEAR     69  55  60 NW5       29.93R
CHENAULT AIRPK CLEAR     72  46  40 N5        29.93

$$

LAZ027-028-060200-
CENTRAL LOUISIANA

CITY           SKY/WX    TMP DP  RH WIND       PRES   REMARKS
FORT POLK      CLEAR     71  47  42 N5        29.94R
ALEXANDRIA INT CLEAR     69  50  50 N5        29.92R
ALEXANDRIA     CLEAR     68  51  54 CALM      29.94R

$$

LAZ001-002-060200-
NORTHWEST LOUISIANA

CITY           SKY/WX    TMP DP  RH WIND       PRES   REMARKS
SHREVEPORT     PTCLDY    72  48  42 N5        29.96R
BARKSDALE AFB  CLEAR     70  46  42 N5        29.96R
DTN SHREVEPORT CLEAR     73  49  42 CALM      29.96R

$$

LAZ014-016-060200-
NORTHEAST LOUISIANA

CITY           SKY/WX    TMP DP  RH WIND       PRES   REMARKS
MONROE         CLEAR     67  54  63 CALM      29.95R
TALLULAH       CLEAR     69  45  41 N9        29.94R

$$





USA.gov is the U.S. government's official web portal to all federal, state and local government web resources and services.